Location: ???????
(55.5931°N, 39.3286°E)
Time: 22:41:27
(UTC+00:00)

Cosmos 1626 - Pass Details

Date: 14 April 2024
Orbit: 408 x 412 km, 82.5° (Epoch: 22 May)

Event Time Altitude Azimuth Distance (km) Brightness Sun altitude
Rises 01:38:21 0° 189° (S) 2,372 5.2 -6.3°
Reaches altitude 10° 01:40:22 10° 189° (S) 1,516 4.2 -6.0°
Maximum altitude 01:43:40 85° 102° (ESE) 438 1.9 -5.6°
Drops below altitude 10° 01:47:02 10° 13° (NNE) 1,544 5.2 -5.2°
Sets 01:49:06 0° 13° (NNE) 2,420 6.2 -4.9°
